[[{"header":{"parameterUnit":"m.s-1","parameterCategory":1,"la1":30.2991,"la2":30.254,"lo1":-89.0895,"lo2":-89.0444,"dy":0.0017,"dx":0.0017,"nx":28,"ny":28,"refTime":"2025-04-09T03:00:00:Z","depth":0,"parameterNumber":2,"parameterNumberName":"U-component_of_WINDS"},"data":[0,0,0,0,0,0,0,0,0,0,0,0,0,0,0,0,0,0,0,0,0,0,0,0,0,0,0,0,0,0,0,0,0,0,0,0,0,0,0,0,0,0,0,0,0,0,0,0,0,0,0,0,0,0,0,0,0,0,-1.9539,-1.954,0,-1.9594,-1.9595,-1.9595,-1.9494,-1.9491,-1.9487,-1.9484,-1.9543,-1.9547,-1.9552,0,0,0,0,0,0,0,0,0,0,0,0,0,-1.9347,-1.9351,-1.9539,-1.954,-1.9541,-1.9594,-1.9595,-1.9596,-1.9495,-1.949,-1.9486,-1.9482,-1.9541,-1.9547,-1.9552,0,0,0,0,0,0,0,0,0,0,0,0,0,-1.9419,-1.9353,-1.9539,-1.9497,-1.9493,-1.9594,-1.9595,-1.9596,-1.9495,-1.949,-1.9485,-1.948,-1.9539,-1.9546,-1.9553,-1.9699,0,0,-1.9575,-1.9578,0,0,0,0,0,0,0,0,-1.9415,-1.9427,-1.9502,-1.95,-1.9496,-1.9532,-1.9548,-1.963,-1.9497,-1.9495,-1.9484,-1.9478,-1.9543,-1.955,-1.9571,-1.9701,-1.9704,-1.9575,-1.958,-1.9583,-1.9585,0,0,0,0,0,0,0,-1.9411,-1.9424,-1.9561,-1.9503,-1.95,-1.9475,-1.9479,-1.9564,-1.9547,-1.9495,-1.9487,-1.9495,-1.9541,-1.9565,-1.9572,-1.9705,-1.9575,-1.9582,-1.9586,-1.9589,-1.9954,-1.9959,0,0,0,0,0,0,-1.9411,-1.942,-1.9559,-1.9563,-1.9442,-1.9482,-1.9488,-1.9526,-1.9546,-1.9544,-1.9499,-1.949,-1.9555,-1.9564,-1.9574,-1.9744,-1.9583,-1.9589,-1.9593,-1.9949,-1.9955,-1.9961,0,0,0,0,0,0,-1.9407,-1.9424,-1.9557,-1.9489,-1.9504,-1.9491,-1.9535,-1.9529,-1.9553,-1.9549,-1.9546,-1.9527,-1.9552,-1.9564,-1.9667,-1.9744,-1.9593,-1.9599,-1.9942,-1.9951,-1.9958,-2.0086,0,0,0,0,0,0,-1.9402,-1.9423,-1.9479,-1.9491,-1.9508,-1.9651,-1.9539,-1.9534,-1.9565,-1.9554,-1.9574,-1.9573,-1.9548,-1.9657,-1.9675,-1.9751,-1.9605,-1.9935,-1.9946,-1.9955,-2.0075,-2.0098,-2.0117,0,0,0,0,0,-1.9395,-1.9514,-1.9482,-1.95,-1.9577,-1.9655,-1.9665,-1.9634,-1.9572,-1.9627,-1.9624,-1.9572,-1.9733,-1.9669,-1.9687,-1.9768,-1.993,-1.9943,-1.9955,-2.0066,-2.0093,-2.0117,0,0,0,0,0,0,-1.9512,-1.9515,-1.948,-1.9606,-1.9631,-1.9638,-1.9707,-1.9665,-1.9708,-1.9696,-1.9656,-1.9661,-1.9773,-1.978,-1.9709,-1.9908,-1.9821,-1.9838,-1.9899,-1.9926,-1.9946,-1.9943,-1.961,0,0,0,0,0,-1.9552,-1.9615,-1.9614,-1.9725,-1.9739,-1.9721,-1.9754,-1.9727,-1.9752,-1.9763,-1.9767,-1.9794,-1.985,-1.9888,-1.994,-2.0075,-2.0077,-2.0139,-2.016,-2.0177,-2.0193,-2.0263,-2.029,-2.0001,-2.0001,-2.0001,0,0,-1.9637,-1.9646,-1.9688,-1.9749,-1.9765,-1.9831,-1.9731,-1.9805,-1.9853,-1.9774,-1.9872,-1.9876,-1.9903,-2.0023,-2.0076,-2.0032,-2.0272,-2.0193,-2.0207,-2.0213,-2.0278,-2.0306,-2.033,-2.001,-2.0008,-2.0007,0,0,-1.9824,-1.9837,-1.993,-1.9948,-1.9973,-1.996,-1.9982,-1.9995,-1.9994,-2.0091,-2.0033,-2.0089,-2.0187,-2.0208,-2.0231,-2.0423,-2.0376,-2.0441,-2.0551,-2.062,-2.0643,-2.0663,-2.073,-2.0755,-2.0455,-2.0456,-2.0456,0,-1.9926,-2.0022,-1.9984,-2.0062,-2.009,-2.0019,-2.0112,-2.0131,-2.0173,-2.0194,-2.0144,-2.0263,-2.0277,-2.0399,-2.0446,-2.0467,-2.0491,-2.0439,-2.0642,-2.0662,-2.068,-2.0744,-2.0769,-2.0463,-2.0462,-2.0462,-2.0461,0,-2.0146,-2.0213,-2.0285,-2.0325,-2.0361,-2.0446,-2.0421,-2.0462,-2.0431,-2.0423,-2.0521,-2.0534,-2.0586,-2.0613,-2.0585,-2.0731,-2.0703,-2.0649,-2.0561,-2.0716,-2.0775,-2.0799,-2.0474,-2.0472,-2.0469,-2.0467,0,0,-2.0411,-2.0426,-2.0453,-2.0469,-2.049,-2.0541,-2.0623,-2.0672,-2.0707,-2.0737,-2.0804,-2.0887,-2.0836,-2.0862,-2.0835,-2.0896,-2.1045,-2.0833,-2.0833,-2.0872,-2.1205,-2.1246,-2.1275,-2.1013,-2.1018,-2.1021,-2.1203,0,-2.0596,-2.0735,-2.0702,-2.084,-2.09,-2.0832,-2.0903,-2.0923,-2.0917,-2.0967,-2.096,-2.1019,-2.0948,-2.0963,-2.1019,-2.1015,-2.1111,-2.1001,-2.1075,-2.1078,-2.1071,-2.1307,-2.1351,-2.1522,-2.1226,-2.123,-2.1233,0,-2.0831,-2.0868,-2.1012,-2.102,-2.1044,-2.1108,-2.1149,-2.1199,-2.122,-2.121,-2.1239,-2.1199,-2.1278,-2.1189,-2.1297,-2.1223,-2.1251,-2.1253,-2.1258,-2.1265,-2.1165,-2.1319,-2.1576,-2.1601,-2.1269,-2.1266,-2.1263,0,-2.1009,-2.1095,-2.1191,-2.1207,-2.122,-2.1266,-2.1273,-2.1289,-2.132,-2.1356,-2.1375,-2.142,-2.1445,-2.1481,-2.1454,-2.1391,-2.1567,-2.1475,-2.1561,-2.1562,-2.1602,-2.16,-2.1867,-2.162,-2.1619,-2.1619,-2.1618,0,-2.1219,-2.131,-2.1271,-2.133,-2.1429,-2.1389,-2.1488,-2.1487,-2.1501,-2.1559,-2.1503,-2.1558,-2.1519,-2.1571,-2.155,-2.1642,-2.1654,-2.1649,-2.1642,-2.1654,-2.1655,-2.1672,-2.166,-2.1626,-2.1624,-2.1623,-2.1622,0,-2.1436,-2.1413,-2.1514,-2.1516,-2.1519,-2.1591,-2.1593,-2.1648,-2.1636,-2.1709,-2.1724,-2.1706,-2.1764,-2.174,-2.1802,-2.1787,-2.1905,-2.1883,-2.1898,-2.1893,-2.198,-2.1972,-2.2267,-2.2303,-2.2034,-2.2036,-2.2039,0,-2.1572,-2.164,-2.1648,-2.1682,-2.1693,-2.1749,-2.1779,-2.1742,-2.1776,-2.1803,-2.1854,-2.1906,-2.1946,-2.2042,-2.2034,-2.208,-2.2059,-2.2159,-2.2066,-2.2074,-2.2059,-2.2056,-2.2062,-2.2178,-2.2181,-2.2184,-2.2186,0,-2.1816,-2.18,-2.1846,-2.1887,-2.1924,-2.1955,-2.1982,-2.2013,-2.1976,-2.2017,-2.2074,-2.2105,-2.2166,-2.2219,-2.2259,-2.2266,-2.2221,-2.2215,-2.2237,-2.225,-2.2256,-2.2253,-2.1949,-2.2209,-2.2206,-2.2205,-2.2204,-2.2203,-2.1996,-2.2051,-2.2066,-2.2118,-2.2133,-2.2158,-2.2208,-2.2201,-2.2248,-2.2295,-2.2269,-2.2336,-2.2353,-2.2402,-2.2415,-2.2466,-2.2427,-2.2459,-2.2467,-2.2476,-2.2487,-2.2247,-2.2473,-2.2473,-2.2472,-2.2471,-2.2471,0,-2.2236,-2.224,-2.2288,-2.2325,-2.2366,-2.2317,-2.2342,-2.238,-2.2439,-2.2458,-2.2497,-2.2562,-2.2612,-2.2607,-2.2652,-2.2694,-2.2674,-2.2707,-2.2704,-2.2706,-2.252,-2.2496,-2.2723,-2.2723,-2.2723,-2.2723,-2.2723,-2.2723,-2.2365,-2.2457,-2.2443,-2.254,-2.2544,-2.2608,-2.2627,-2.2649,-2.2663,-2.2738,-2.2778,-2.2774,-2.2783,-2.2828,-2.2871,-2.2868,-2.2887,-2.2929,-2.2918,-2.2744,-2.272,-2.2696,-2.2673,-2.2933,-2.2933,-2.3099,-2.3101,-2.3102]},{"header":{"parameterUnit":"m.s-1","parameterCategory":1,"la1":30.2991,"la2":30.254,"lo1":-89.0895,"lo2":-89.0444,"dy":0.0017,"dx":0.0017,"nx":28,"ny":28,"refTime":"2025-04-09T03:00:00:Z","depth":0,"parameterNumber":3,"parameterNumberName":"V-component_of_WINDS"},"data":[0,0,0,0,0,0,0,0,0,0,0,0,0,0,0,0,0,0,0,0,0,0,0,0,0,0,0,0,0,0,0,0,0,0,0,0,0,0,0,0,0,0,0,0,0,0,0,0,0,0,0,0,0,0,0,0,0,0,-3.6472,-3.6473,0,-3.6587,-3.6588,-3.6589,-3.6568,-3.6566,-3.6564,-3.6562,-3.6676,-3.6681,-3.6686,0,0,0,0,0,0,0,0,0,0,0,0,0,-3.623,-3.6235,-3.6472,-3.6474,-3.6475,-3.6587,-3.6588,-3.659,-3.6568,-3.6566,-3.6563,-3.6561,-3.6674,-3.668,-3.6686,0,0,0,0,0,0,0,0,0,0,0,0,0,-3.6339,-3.6236,-3.6472,-3.6478,-3.6479,-3.6586,-3.6588,-3.659,-3.6569,-3.6566,-3.6563,-3.656,-3.6672,-3.668,-3.6687,-3.6794,0,0,-3.671,-3.6713,0,0,0,0,0,0,0,0,-3.6333,-3.6348,-3.6475,-3.6478,-3.648,-3.656,-3.6545,-3.6658,-3.6569,-3.6535,-3.6562,-3.6558,-3.664,-3.665,-3.6678,-3.6799,-3.6804,-3.671,-3.6715,-3.6718,-3.672,0,0,0,0,0,0,0,-3.6325,-3.6343,-3.6517,-3.6477,-3.648,-3.6473,-3.6485,-3.6566,-3.6603,-3.6537,-3.6536,-3.655,-3.664,-3.6671,-3.668,-3.6806,-3.671,-3.6717,-3.6721,-3.6724,-3.7018,-3.7022,0,0,0,0,0,0,-3.6317,-3.6337,-3.6514,-3.6521,-3.6397,-3.648,-3.6494,-3.6537,-3.6602,-3.6609,-3.6553,-3.6549,-3.6659,-3.6672,-3.6684,-3.6812,-3.6718,-3.6725,-3.6729,-3.7015,-3.7019,-3.7023,0,0,0,0,0,0,-3.6311,-3.6333,-3.6509,-3.6429,-3.6451,-3.6488,-3.6537,-3.6541,-3.6571,-3.6614,-3.662,-3.6577,-3.6657,-3.6674,-3.6766,-3.6816,-3.6728,-3.6735,-3.7011,-3.7016,-3.7021,-3.707,0,0,0,0,0,0,-3.6305,-3.6331,-3.6373,-3.643,-3.6455,-3.6591,-3.654,-3.6546,-3.6585,-3.6581,-3.6638,-3.6645,-3.6656,-3.6756,-3.6774,-3.6824,-3.6741,-3.7007,-3.7014,-3.7019,-3.7064,-3.7076,-3.7086,0,0,0,0,0,-3.6296,-3.6382,-3.6375,-3.6397,-3.6509,-3.6594,-3.6608,-3.6621,-3.6589,-3.6631,-3.6657,-3.6643,-3.6808,-3.6765,-3.6786,-3.6839,-3.7004,-3.7012,-3.7019,-3.7059,-3.7074,-3.7086,0,0,0,0,0,0,-3.633,-3.639,-3.6383,-3.649,-3.6537,-3.659,-3.6644,-3.6636,-3.6693,-3.6686,-3.6698,-3.6711,-3.6805,-3.6832,-3.6783,-3.6945,-3.6901,-3.6913,-3.6924,-3.6939,-3.6949,-3.6941,-3.6747,0,0,0,0,0,-3.635,-3.6416,-3.6464,-3.6554,-3.6578,-3.6607,-3.6644,-3.665,-3.6699,-3.6718,-3.6752,-3.6798,-3.686,-3.6901,-3.6961,-3.7068,-3.7079,-3.7114,-3.7125,-3.7134,-3.7144,-3.72,-3.7216,-3.7048,-3.7048,-3.7048,0,0,-3.6392,-3.6433,-3.6473,-3.6561,-3.6599,-3.6664,-3.6624,-3.6696,-3.6744,-3.6729,-3.6818,-3.6844,-3.6897,-3.6997,-3.7043,-3.7022,-3.7193,-3.7144,-3.7151,-3.7156,-3.721,-3.7226,-3.724,-3.7053,-3.7052,-3.7051,0,0,-3.6502,-3.654,-3.6618,-3.6656,-3.6713,-3.6731,-3.675,-3.6804,-3.6821,-3.6911,-3.69,-3.6957,-3.7065,-3.7102,-3.7135,-3.7257,-3.7245,-3.7276,-3.7334,-3.7389,-3.7402,-3.7414,-3.7455,-3.747,-3.7286,-3.7286,-3.7286,0,-3.6546,-3.6647,-3.6659,-3.6732,-3.677,-3.676,-3.6837,-3.6873,-3.6946,-3.6972,-3.6948,-3.7081,-3.7116,-3.7223,-3.7253,-3.7281,-3.7301,-3.7269,-3.7399,-3.7411,-3.7422,-3.7462,-3.7478,-3.729,-3.7289,-3.7289,-3.7289,0,-3.6697,-3.6767,-3.6823,-3.6894,-3.6938,-3.7014,-3.7036,-3.7079,-3.708,-3.71,-3.7191,-3.7233,-3.7299,-3.7325,-3.7327,-3.7433,-3.7418,-3.7396,-3.7352,-3.7441,-3.7479,-3.7494,-3.7294,-3.7293,-3.7292,-3.7291,0,0,-3.6832,-3.6908,-3.6929,-3.696,-3.7021,-3.7074,-3.7147,-3.7214,-3.7249,-3.73,-3.736,-3.745,-3.7431,-3.7468,-3.7474,-3.7522,-3.7613,-3.7495,-3.7496,-3.7514,-3.773,-3.7744,-3.7762,-3.7606,-3.7609,-3.7612,-3.7724,0,-3.6946,-3.7077,-3.709,-3.7207,-3.7269,-3.726,-3.7323,-3.7367,-3.7387,-3.7442,-3.7465,-3.7528,-3.7498,-3.752,-3.7567,-3.7592,-3.7657,-3.7585,-3.7661,-3.7663,-3.7647,-3.7782,-3.7798,-3.7903,-3.7739,-3.7742,-3.7744,0,-3.7098,-3.7152,-3.7275,-3.7326,-3.7352,-3.741,-3.747,-3.7524,-3.7572,-3.7583,-3.7624,-3.7623,-3.7697,-3.765,-3.7751,-3.7701,-3.7733,-3.775,-3.7754,-3.7761,-3.7708,-3.779,-3.7937,-3.7952,-3.7767,-3.7765,-3.7764,0,-3.7181,-3.7286,-3.7372,-3.7399,-3.7461,-3.7501,-3.7528,-3.7573,-3.7612,-3.7664,-3.7688,-3.7748,-3.7781,-3.7827,-3.7841,-3.7806,-3.794,-3.7895,-3.795,-3.7949,-3.7978,-3.7975,-3.8129,-3.8,-3.8,-3.8,-3.8,0,-3.7307,-3.7382,-3.741,-3.7464,-3.7547,-3.7559,-3.7641,-3.7666,-3.7706,-3.7762,-3.7757,-3.781,-3.7826,-3.7881,-3.7893,-3.7973,-3.7988,-3.7998,-3.7999,-3.7998,-3.7996,-3.8018,-3.801,-3.8004,-3.8003,-3.8002,-3.8002,0,-3.7414,-3.7437,-3.753,-3.758,-3.7594,-3.7653,-3.7695,-3.7746,-3.7765,-3.7836,-3.7854,-3.7883,-3.7948,-3.7967,-3.8044,-3.8052,-3.8145,-3.8141,-3.8129,-3.8129,-3.8181,-3.8175,-3.8354,-3.8377,-3.8234,-3.8235,-3.8236,0,-3.7492,-3.755,-3.7606,-3.7644,-3.7673,-3.7734,-3.7772,-3.7787,-3.7827,-3.7885,-3.7927,-3.7991,-3.8043,-3.8146,-3.8173,-3.8232,-3.8228,-3.8286,-3.8237,-3.8232,-3.8227,-3.8223,-3.8228,-3.8295,-3.8297,-3.8298,-3.8299,0,-3.7628,-3.7635,-3.7692,-3.7752,-3.7799,-3.7847,-3.7893,-3.7924,-3.7944,-3.7989,-3.8055,-3.8095,-3.8174,-3.8236,-3.8295,-3.8321,-3.8313,-3.8315,-3.833,-3.8328,-3.8318,-3.8322,-3.8153,-3.831,-3.8309,-3.8308,-3.8308,-3.8307,-3.7722,-3.7772,-3.7818,-3.7881,-3.7917,-3.796,-3.8009,-3.8034,-3.809,-3.8155,-3.816,-3.8231,-3.8275,-3.8353,-3.8383,-3.8437,-3.842,-3.8443,-3.8448,-3.8453,-3.8457,-3.831,-3.8448,-3.8448,-3.8447,-3.8447,-3.8447,0,-3.7855,-3.7885,-3.7942,-3.8007,-3.8055,-3.8044,-3.8094,-3.8135,-3.8198,-3.824,-3.8291,-3.8366,-3.8426,-3.8458,-3.8517,-3.8554,-3.8552,-3.8569,-3.8566,-3.8572,-3.847,-3.845,-3.857,-3.857,-3.857,-3.857,-3.857,-3.857,-3.7931,-3.8014,-3.8027,-3.8127,-3.8155,-3.8225,-3.8254,-3.8293,-3.8327,-3.841,-3.846,-3.8481,-3.8519,-3.8581,-3.8635,-3.8642,-3.8664,-3.8683,-3.8688,-3.8592,-3.8579,-3.8567,-3.8548,-3.8688,-3.8688,-3.8786,-3.8787,-3.8787]}]]